Regional Weather Roundup
Issued by NWS

Home | Current Version | Previous Version | Graphics & Text | Print | Product List | Glossary On
Versions: 1 2 3 4 5 6 7 8 9 10 11 12 13 14 15 16 17 18 19 20 21 22 23 24 25 26 27 28 29 30 31 32 33 34 35 36 37 38 39 40 41 42 43 44 45 46 47 48 49 50
000
ASUS45 KBOU 242107
RWRCO

WEATHER ROUNDUP FOR COLORADO
NATIONAL WEATHER SERVICE DENVER/BOULDER CO
300 PM MDT SUN MAY 24 2015

NOTE: "FAIR" INDICATES FEW OR NO CLOUDS BELOW 12000 FEET WITH NO
SIGNIFICANT WEATHER AND/OR OBSTRUCTIONS TO VISIBILITY.

COZ001>005-013-030-031-242200-
...NORTHWEST COLORADO...

CITY           SKY/WX    TMP DP  RH WIND       PRES   REMARKS
CRAIG          LGT RAIN  43  39  86 W12       29.96S
HAYDEN         CLOUDY    43  36  75 NW9       29.94F
MEEKER         LGT RAIN  44  39  82 S7        29.96F
MOUNT WERNER   NOT AVBL
STEAMBOAT SPGS CLOUDY    42  38  85 S3        29.94S
WALDEN         CLOUDY    50  32  50 SW15      29.92S
$$

COZ006>008-011-242200-
...WEST CENTRAL VALLEYS...

CITY           SKY/WX    TMP DP  RH WIND       PRES   REMARKS
GRAND JUNCTION PTSUNNY   62  39  42 VRB7      29.89F
MONTROSE       PTSUNNY   59  36  42 N6        29.94F
EAGLE          PTSUNNY   52  37  58 SW24      29.95R
RIFLE          LGT RAIN  49  41  74 CALM      29.96S
DELTA          PTSUNNY   63  41  44 MISG      29.92S
NUCLA          PTSUNNY   59  36  41 NW10      29.98F
$$

COZ017>023-064>068-242200-
...SOUTHWEST COLORADO...

CITY           SKY/WX    TMP DP  RH WIND       PRES   REMARKS
DURANGO        PTSUNNY   57  40  52 SW16G26   29.96F
CORTEZ         MOSUNNY   57  38  48 VRB3      29.97F
PAGOSA SPRINGS PTSUNNY   49  40  70 SW12      30.00F
TELLURIDE      CLOUDY    45  31  58 NW5       30.05R
WOLF CREEK PAS NOT AVBL
$$

COZ009-010-012-014-032>034-037-058>063-242200-
...CENTRAL COLORADO...

CITY           SKY/WX    TMP DP  RH WIND       PRES   REMARKS
ASPEN          PTSUNNY   44  35  70 N10G20    29.97R
BUENA VISTA    PTSUNNY   53  26  34 CALM      29.90F
COPPER MTN     FLURRIES  36  23  60 S9        30.05F
BERTHOUD PASS  CLOUDY    28  21  74 MISG      30.07F
COTTONWOOD PAS PTSUNNY   52  27  37 NW3       29.98F
GUNNISON       PTSUNNY   54  27  35 W13       29.95F
KREMMLING      CLOUDY    46  34  61 NW16G23   29.94R
LEADVILLE      CLOUDY    42  24  49 CALM      29.97F
MONARCH PASS   PTSUNNY   32  23  69 W20G35    30.15F WCI  20
SALIDA         PTSUNNY   59  31  35 S18G24    29.96F
SUNLIGHT       LGT SNOW  34  32  93 CALM      30.08S VSB 3/4
WILKERSON PASS PTSUNNY   43  21  42 W5        30.05S
$$

COZ069>075-242200-
...SAN LUIS VALLEY/SANGRE DE CRISTO MOUNTAINS...

CITY           SKY/WX    TMP DP  RH WIND       PRES   REMARKS
ALAMOSA        CLOUDY    45  33  63 N5        29.95F
LA VETA PASS   CLOUDY   N/A N/A N/A MISG      30.01S
SAGUACHE       PTSUNNY   45  34  65 S6        29.97F
$$

COZ035-036-038>040-242200-
...NORTHERN COLORADO FRONT RANGE...

CITY           SKY/WX    TMP DP  RH WIND       PRES   REMARKS
DENVER INTL AP PTSUNNY   59  41  51 E21       29.86S
DMNS CITY PARK   N/A     56  39  51 E6G12     29.85S
AURORA         NOT AVBL
FRONT RANGE AP NOT AVBL
ERIE MUNI ARPT TSTM      52  46  82 NE3       29.87R
BOULDER MUN AP LGT RAIN  50  46  87 CALM      29.87R
CENTENNIAL     PTSUNNY   58  38  47 N8        29.86F
BROOMFIELD     TSTM      50  45  81 NW9       29.88S
FORT COLLINS   PTSUNNY   61  45  55 SE14      29.86S
LONGMONT       LGT RAIN  56  48  72 S7        29.88S
$$

COZ041-046-047-076>085-087-088-242200-
...PIKES PEAK/PALMER DIVIDE AND SOUTHERN FOOTHILLS...

CITY           SKY/WX    TMP DP  RH WIND       PRES   REMARKS
COLO. SPRINGS  CLOUDY    53  39  59 S13       29.88S
A. F. ACADEMY  NOT AVBL
ELLICOTT       NOT AVBL
FALCON         CLOUDY    51  38  61 SE13      29.90S
FORT CARSON    NOT AVBL
LIMON          LGT RAIN  49  44  83 NW15      29.86F
MONUMENT HILL  NOT AVBL
TRINIDAD       PTSUNNY   63  37  38 W20       29.82F
$$

COZ042>045-048>051-090-091-242200-
...NORTHEAST COLORADO...

CITY           SKY/WX    TMP DP  RH WIND       PRES   REMARKS
GREELEY ARPT   PTSUNNY   63  45  51 S10G16    29.85S
AKRON          TSTM      54  48  80 W29G37    29.82R
BURLINGTON     MOSUNNY   69  53  56 SE13      29.80F
WRAY           MOSUNNY   71  48  44 E3        29.80F
STERLING       PTSUNNY   63  50  63 NE8       29.79F
HOLYOKE        NOT AVBL
FORT MORGAN    LGT RAIN  53  47  79 W14       29.85R
$$

COZ086-089-092>099-242200-
...SOUTHEAST COLORADO...

CITY           SKY/WX    TMP DP  RH WIND       PRES   REMARKS
PUEBLO         CLOUDY    61  43  51 S6        29.83S
LA JUNTA       CLOUDY    66  49  54 N10       29.78F
LAMAR          MOSUNNY   68  53  58 E10       29.74F
SPRINGFIELD      N/A     67  51  56 S15       29.78F
$$


USA.gov is the U.S. government's official web portal to all federal, state and local government web resources and services.